Regional Weather Roundup
Issued by NWS

Home | Current Version | Previous Version | Text Only | Print | Product List | Glossary Off
Versions: 1 2 3 4 5 6 7 8 9 10 11 12 13 14 15 16 17 18 19 20 21 22 23 24 25 26 27 28 29 30 31 32 33 34 35 36 37 38 39 40 41 42 43 44 45 46 47 48 49 50

000
ASUS43 KMKX 302259
RWRWI

WISCONSIN REGIONAL WEATHER ROUNDUP
NATIONAL WEATHER SERVICE MILWAUKEE/SULLIVAN WI
500 PM CST FRI JAN 30 2015

NOTE: "FAIR" INDICATES FEW OR NO CLOUDS BELOW 12,000 FEET WITH NO
SIGNIFICANT WEATHER AND/OR OBSTRUCTIONS TO VISIBILITY.

WIZ001-002-006>008-014>016-023>028-310000-
NORTHWEST WISCONSIN

CITY           SKY/WX    TMP DP  RH WIND       PRES   REMARKS
SUPERIOR ARPT  CLOUDY    17   5  58 SW6       30.29F WCI   9
ASHLAND        CLOUDY    18   3  52 S3        30.29F
HAYWARD        CLOUDY    15   2  56 S8        30.27F WCI   4
SIREN          PTCLDY    19   7  58 S7        30.28F WCI  10
CUMBERLAND     PTCLDY    18   5  57 S7        30.29F WCI   8
RICE LAKE      MOCLDY    18   7  60 SE8       30.33F WCI   8
CHETEK         CLOUDY    17   6  61 SE5       30.33F WCI  10
LADYSMITH      PTCLDY    16   6  63 S6        30.34F WCI   7
EAU CLAIRE     NOT AVBL
MENOMONIE      CLEAR     19   8  60 SE5       30.35F WCI  13
NEW RICHMOND   CLEAR     20  11  68 SE8       30.30F WCI  10
OSCEOLA        CLEAR     22  12  64 SE9       30.33F WCI  12
$$

WIZ003>005-009-010-017-018-310000-
NORTH CENTRAL WISCONSIN

CITY           SKY/WX    TMP DP  RH WIND       PRES   REMARKS
MANITOWISH WTR CLOUDY    15   6  69 S3        30.26F
ARBOR VITAE    MOCLDY    18   6  60 SW3       30.27F
WOODRUFF       MOCLDY    18   6  60 SW3       30.27F
RHINELANDER    CLOUDY    17   2  51 SW5       30.27F WCI  10
EAGLE RIVER    LGT SNOW  16   5  62 CALM      30.27F
LAND O LAKES   CLOUDY    17   3  54 SW6       30.26F WCI   9
PHILLIPS       CLOUDY    16   3  57 S8        30.28F WCI   5
TOMAHAWK       MOCLDY    17   4  57 CALM      30.30F
MEDFORD        PTCLDY    15   5  65 SW3       30.31F
MERRILL        PTCLDY    16   5  63 SW6       30.33F WCI   7
$$

WIZ029-030-035-036-043>047-310000-
CENTRAL WISCONSIN

CITY           SKY/WX    TMP DP  RH WIND       PRES   REMARKS
WAUSAU         PTCLDY    17   4  56 W5        30.32F WCI  10
MOSINEE        NOT AVBL
MARSHFIELD     PTCLDY    20   6  55 CALM      30.33F
STEVENS POINT  PTCLDY    18   4  56 CALM      30.35F
WAUPACA        PTCLDY    23   6  49 W3        30.39F
WAUTOMA        NOT AVBL
WISC RAPIDS    PTCLDY    20   6  55 S6        30.37F WCI  12
CAMP DOUGLAS   NOT AVBL
$$

WIZ011>013-019>022-031-037>040-048>050-310000-
NORTHEAST WISCONSIN

CITY           SKY/WX    TMP DP  RH WIND       PRES   REMARKS
ANTIGO         CLOUDY    15   4  62 SW6       30.31F WCI   6
SHAWANO        CLOUDY    22   7  52 SW3       30.39S
OCONTO         CLOUDY    20   7  56 CALM      30.39F
STURGEON BAY   CLOUDY    18   5  57 SW7       30.41S WCI   8
GREEN BAY      MOCLDY    21   9  59 SW5       30.40S WCI  15
MANITOWOC      NOT AVBL
APPLETON       MOCLDY    19   9  63 VRB5      30.39S WCI  13
CLINTONVILLE   MOCLDY    21   5  49 W6        30.38F WCI  14
OSHKOSH        PTCLDY    22   9  57 SW5       30.39F WCI  16
$$

WIZ032>034-041-042-053>061-310000-
SOUTHWEST WISCONSIN

CITY           SKY/WX    TMP DP  RH WIND       PRES   REMARKS
LA CROSSE      PTCLDY    25   8  48 S8        30.37F WCI  16
SPARTA         MOCLDY    23   7  49 SW3       30.39F
VIROQUA        PTCLDY    23   8  52 SW9       30.35F WCI  13
BOSCOBEL       CLEAR     25   8  48 S7        30.40F WCI  17
PRAIRIE DU CHI CLEAR     27   7  44 S5        30.40F WCI  21
PLATTEVILLE    CLEAR     25  12  57 S6        30.39F WCI  18
$$

WIZ056-057-062-063-064-067-068-310000-
SOUTH CENTRAL WISCONSIN

CITY           SKY/WX    TMP DP  RH WIND       PRES   REMARKS
REEDSBURG      PTCLDY    23   8  54 CALM      30.38F
BARABOO/DELLS  MOCLDY    23   8  52 W5        30.38F WCI  17
LONE ROCK      NOT AVBL
MINERAL POINT  CLEAR     27  12  54 S7        30.38F WCI  19
MADISON        PTCLDY    24   8  50 SW3       30.39F
MIDDLETON      MOCLDY    28   9  45 SW7       30.40S WCI  20
WATERTOWN      CLEAR     23  11  60 SW6       30.39F WCI  15
MONROE         CLEAR     25  16  68 SW7       30.39F WCI  17
JANESVILLE     CLEAR     27  12  54 SW8       30.40F WCI  18
$$

WIZ051-052-058>065-066-070>072-310000-
SOUTHEAST WISCONSIN

CITY           SKY/WX    TMP DP  RH WIND       PRES   REMARKS
MILWAUKEE      PTCLDY    25   6  44 SW8       30.41F WCI  16
WAUKESHA       NOT AVBL
MILWAUKEE/TIMM CLEAR     25   7  46 W6        30.42F WCI  18
RACINE         CLEAR     25   7  46 W7        30.43F WCI  17
BURLINGTON     CLEAR     22   9  57 SW6       30.42S WCI  15
KENOSHA        CLEAR     24  10  55 W8        30.41F WCI  15
FOND DU LAC    PTCLDY    22   8  55 S5        30.38F WCI  16
SHEBOYGAN      CLEAR     22   9  57 W9        30.39F WCI  12
WEST BEND      PTCLDY    23   7  50 SW3       30.39F
JUNEAU         PTCLDY    22  10  61 SW6       30.41F WCI  14
$$

LSZ147-162-310000-
LAKE SUPERIOR

STATION/POSITION TIME  TEMP    WIND        PRES    WAVE
                       AIR SEA DIR/SP/G            HT/PER
                 (UTC) (F)     (DEG/KT/KT) (MB)    (FT/S)
DEVILS ISLAND    2200   16     190/  3/  5 1028.4F
PORT WING        2240   17     170/  6/ 11 1026.1F
SAXON HARBOR     2200   19     210/  4/  8 1027.1
$$

LMZ867-665-643>646-310000-
LAKE MICHIGAN

STATION/POSITION TIME  TEMP    WIND        PRES    WAVE
                       AIR SEA DIR/SP/G            HT/PER
                 (UTC) (F)     (DEG/KT/KT) (MB)    (FT/S)
NORTHPORT PIER   2200   18     210/  3/  6 1029.5F
SISTER BAY       2213             CALM       N/A
KEWAUNEE LAKESHO 2200   20     240/  5/  8 1028.9F
SHEBOYGAN LAKESH 2200   22     160/  7/ 10 1031.5F
PORT WASHINGTON  2240   26     220/  5/  9 1030.1F
MILWAUKEE LAKESH 2200   24     140/  5/  6   N/A
KENOSHA   LAKESH 2200   27     150/  6/  8 1030.5F
$$

TC  - TEMPERATURE IN CELSIUS
VSB - VISIBILITY IN STATUTE MILES
WCI - WIND CHILL INDEX
HX  - HEAT INDEX




USA.gov is the U.S. government's official web portal to all federal, state and local government web resources and services.